Time,TemperatureF,DewpointF,PressureIn,WindDirection,WindDirectionDegrees,WindSpeedMPH,WindSpeedGustMPH,Humidity,HourlyPrecipIn,Conditions,Clouds,dailyrainin,SoftwareType,DateUTC
2013-02-14 00:12:00,22.8,20.0,29.78,ENE,64,0.0,-999.0,88,-99.99,,,0.00,weatherlink.com 1.10,2013-02-14 05:12:00,
2013-02-14 00:27:00,22.5,20.0,29.79,ENE,64,0.0,-999.0,89,-99.99,,,0.00,weatherlink.com 1.10,2013-02-14 05:27:00,
2013-02-14 00:42:00,21.9,19.0,29.79,ENE,64,0.0,-999.0,89,-99.99,,,0.00,weatherlink.com 1.10,2013-02-14 05:42:00,
2013-02-14 01:12:00,22.4,20.0,29.80,ENE,64,0.0,-999.0,91,-99.99,,,0.00,weatherlink.com 1.10,2013-02-14 06:12:00,
2013-02-14 01:42:00,21.3,19.0,29.81,ENE,64,0.0,-999.0,90,-99.99,,,0.00,weatherlink.com 1.10,2013-02-14 06:42:00,
2013-02-14 02:12:00,23.5,22.0,29.82,ENE,64,0.0,-999.0,92,-99.99,,,0.00,weatherlink.com 1.10,2013-02-14 07:12:00,
2013-02-14 02:27:00,24.3,22.0,29.82,ENE,64,0.0,-999.0,91,-99.99,,,0.00,weatherlink.com 1.10,2013-02-14 07:27:00,
2013-02-14 02:57:00,25.2,23.0,29.83,ENE,64,0.0,-999.0,91,-99.99,,,0.00,weatherlink.com 1.10,2013-02-14 07:57:00,
2013-02-14 03:12:00,25.7,24.0,29.83,ENE,64,0.0,-999.0,91,-99.99,,,0.00,weatherlink.com 1.10,2013-02-14 08:12:00,
2013-02-14 03:42:00,26.6,24.0,29.83,NW,313,2.0,-999.0,90,-99.99,,,0.00,weatherlink.com 1.10,2013-02-14 08:42:00,
2013-02-14 03:58:00,26.9,24.0,29.83,WSW,237,0.0,-999.0,89,-99.99,,,0.00,weatherlink.com 1.10,2013-02-14 08:58:00,
2013-02-14 04:13:00,27.2,24.0,29.84,SW,227,0.0,-999.0,89,-99.99,,,0.00,weatherlink.com 1.10,2013-02-14 09:13:00,
2013-02-14 04:28:00,27.4,24.0,29.84,WNW,283,1.0,-999.0,88,-99.99,,,0.00,weatherlink.com 1.10,2013-02-14 09:28:00,
2013-02-14 04:43:00,27.5,24.0,29.85,West,281,2.0,-999.0,88,-99.99,,,0.00,weatherlink.com 1.10,2013-02-14 09:43:00,
2013-02-14 04:58:00,27.6,24.0,29.86,West,271,2.0,-999.0,87,-99.99,,,0.00,weatherlink.com 1.10,2013-02-14 09:58:00,
2013-02-14 05:13:00,27.6,24.0,29.86,West,268,1.0,-999.0,87,-99.99,,,0.00,weatherlink.com 1.10,2013-02-14 10:13:00,
2013-02-14 05:28:00,27.7,24.0,29.86,West,259,1.0,-999.0,87,-99.99,,,0.00,weatherlink.com 1.10,2013-02-14 10:28:00,
2013-02-14 05:43:00,27.8,24.0,29.87,WSW,241,2.0,-999.0,87,-99.99,,,0.00,weatherlink.com 1.10,2013-02-14 10:43:00,
2013-02-14 05:58:00,27.8,24.0,29.87,WSW,242,2.0,-999.0,86,-99.99,,,0.00,weatherlink.com 1.10,2013-02-14 10:58:00,
2013-02-14 06:13:00,27.9,24.0,29.88,WSW,245,3.0,-999.0,86,-99.99,,,0.00,weatherlink.com 1.10,2013-02-14 11:13:00,
2013-02-14 06:28:00,28.0,24.0,29.88,WSW,245,3.0,-999.0,86,-99.99,,,0.00,weatherlink.com 1.10,2013-02-14 11:28:00,
2013-02-14 06:43:00,28.0,24.0,29.89,WSW,246,2.0,-999.0,86,-99.99,,,0.00,weatherlink.com 1.10,2013-02-14 11:43:00,
2013-02-14 06:58:00,28.1,25.0,29.89,WSW,245,0.0,-999.0,86,-99.99,,,0.00,weatherlink.com 1.10,2013-02-14 11:58:00,
2013-02-14 07:13:00,28.1,25.0,29.90,WSW,245,3.0,-999.0,86,-99.99,,,0.00,weatherlink.com 1.10,2013-02-14 12:13:00,
2013-02-14 07:28:00,28.3,25.0,29.90,SW,229,1.0,-999.0,86,-99.99,,,0.00,weatherlink.com 1.10,2013-02-14 12:28:00,
2013-02-14 07:43:00,28.5,25.0,29.91,SW,229,2.0,-999.0,86,-99.99,,,0.00,weatherlink.com 1.10,2013-02-14 12:43:00,
2013-02-14 07:58:00,28.8,25.0,29.92,SW,229,3.0,-999.0,86,-99.99,,,0.00,weatherlink.com 1.10,2013-02-14 12:58:00,
2013-02-14 08:13:00,29.1,25.0,29.93,West,274,2.0,-999.0,85,-99.99,,,0.00,weatherlink.com 1.10,2013-02-14 13:13:00,
2013-02-14 08:28:00,29.6,26.0,29.93,West,269,3.0,-999.0,85,-99.99,,,0.00,weatherlink.com 1.10,2013-02-14 13:28:00,
2013-02-14 08:43:00,30.0,26.0,29.93,WSW,251,2.0,-999.0,84,-99.99,,,0.00,weatherlink.com 1.10,2013-02-14 13:43:00,
2013-02-14 08:58:00,30.5,26.0,29.93,SSW,205,2.0,-999.0,83,-99.99,,,0.00,weatherlink.com 1.10,2013-02-14 13:58:00,
2013-02-14 09:13:00,30.9,26.0,29.93,West,279,3.0,-999.0,81,-99.99,,,0.00,weatherlink.com 1.10,2013-02-14 14:13:00,
2013-02-14 09:28:00,31.3,26.0,29.93,West,276,0.0,-999.0,80,-99.99,,,0.00,weatherlink.com 1.10,2013-02-14 14:28:00,
2013-02-14 09:43:00,31.5,25.0,29.94,WSW,257,2.0,-999.0,78,-99.99,,,0.00,weatherlink.com 1.10,2013-02-14 14:43:00,
2013-02-14 09:58:00,32.1,25.0,29.94,West,267,2.0,-999.0,76,-99.99,,,0.00,weatherlink.com 1.10,2013-02-14 14:58:00,
2013-02-14 10:13:00,32.1,25.0,29.94,West,271,3.0,-999.0,75,-99.99,,,0.00,weatherlink.com 1.10,2013-02-14 15:13:00,
2013-02-14 10:28:00,32.3,25.0,29.93,West,259,1.0,-999.0,74,-99.99,,,0.00,weatherlink.com 1.10,2013-02-14 15:28:00,
2013-02-14 10:43:00,32.4,25.0,29.93,WSW,245,0.0,-999.0,75,-99.99,,,0.00,weatherlink.com 1.10,2013-02-14 15:43:00,
2013-02-14 10:58:00,32.5,25.0,29.93,SW,235,3.0,-999.0,75,-99.99,,,0.00,weatherlink.com 1.10,2013-02-14 15:58:00,
2013-02-14 11:13:00,32.5,25.0,29.92,WSW,244,3.0,-999.0,75,-99.99,,,0.00,weatherlink.com 1.10,2013-02-14 16:13:00,
2013-02-14 11:28:00,32.9,26.0,29.92,WSW,254,3.0,-999.0,75,-99.99,,,0.00,weatherlink.com 1.10,2013-02-14 16:28:00,
2013-02-14 11:43:00,33.0,26.0,29.91,SW,227,7.0,-999.0,74,-99.99,,,0.00,weatherlink.com 1.10,2013-02-14 16:43:00,
2013-02-14 12:13:00,35.1,27.0,29.90,SW,227,6.0,-999.0,71,-99.99,,,0.00,weatherlink.com 1.10,2013-02-14 17:13:00,
2013-02-14 12:29:00,35.2,27.0,29.90,SW,215,5.0,-999.0,71,-99.99,,,0.00,weatherlink.com 1.10,2013-02-14 17:29:00,
2013-02-14 12:44:00,35.4,27.0,29.89,SW,218,5.0,-999.0,71,-99.99,,,0.00,weatherlink.com 1.10,2013-02-14 17:44:00,
2013-02-14 12:59:00,36.4,26.0,29.89,SW,236,6.0,-999.0,67,-99.99,,,0.00,weatherlink.com 1.10,2013-02-14 17:59:00,
2013-02-14 13:14:00,37.4,27.0,29.88,SSW,213,4.0,-999.0,66,-99.99,,,0.00,weatherlink.com 1.10,2013-02-14 18:14:00,
2013-02-14 13:29:00,37.3,27.0,29.88,SW,224,2.0,-999.0,67,-99.99,,,0.00,weatherlink.com 1.10,2013-02-14 18:29:00,
2013-02-14 13:44:00,37.9,27.0,29.88,SSW,207,10.0,-999.0,65,-99.99,,,0.00,weatherlink.com 1.10,2013-02-14 18:44:00,
2013-02-14 13:59:00,37.8,27.0,29.87,SW,217,4.0,-999.0,65,-99.99,,,0.00,weatherlink.com 1.10,2013-02-14 18:59:00,
2013-02-14 14:14:00,38.2,26.0,29.86,SSW,198,4.0,-999.0,63,-99.99,,,0.00,weatherlink.com 1.10,2013-02-14 19:14:00,
2013-02-14 14:29:00,38.6,27.0,29.86,South,185,4.0,-999.0,64,-99.99,,,0.00,weatherlink.com 1.10,2013-02-14 19:29:00,
2013-02-14 14:44:00,39.1,27.0,29.86,SW,232,3.0,-999.0,63,-99.99,,,0.00,weatherlink.com 1.10,2013-02-14 19:44:00,
2013-02-14 14:59:00,40.2,28.0,29.85,SSW,198,7.0,-999.0,61,-99.99,,,0.00,weatherlink.com 1.10,2013-02-14 19:59:00,
2013-02-14 15:59:00,39.5,27.0,29.84,South,180,2.0,-999.0,61,-99.99,,,0.00,weatherlink.com 1.10,2013-02-14 20:59:00,
2013-02-14 16:14:00,39.5,26.0,29.84,South,189,2.0,-999.0,60,-99.99,,,0.00,weatherlink.com 1.10,2013-02-14 21:14:00,
2013-02-14 16:29:00,39.7,26.0,29.84,South,180,4.0,-999.0,58,-99.99,,,0.00,weatherlink.com 1.10,2013-02-14 21:29:00,
2013-02-14 16:44:00,39.7,27.0,29.84,South,176,5.0,-999.0,60,-99.99,,,0.00,weatherlink.com 1.10,2013-02-14 21:44:00,
2013-02-14 16:59:00,39.8,27.0,29.84,South,171,0.0,-999.0,60,-99.99,,,0.00,weatherlink.com 1.10,2013-02-14 21:59:00,
2013-02-14 17:29:00,39.7,27.0,29.84,SSW,207,0.0,-999.0,60,-99.99,,,0.00,weatherlink.com 1.10,2013-02-14 22:29:00,
2013-02-14 17:44:00,39.7,27.0,29.85,SSW,213,3.0,-999.0,61,-99.99,,,0.00,weatherlink.com 1.10,2013-02-14 22:44:00,
2013-02-14 17:59:00,39.5,29.0,29.85,WSW,243,7.0,-999.0,67,-99.99,,,0.00,weatherlink.com 1.10,2013-02-14 22:59:00,
2013-02-14 18:14:00,38.4,32.0,29.85,SW,228,6.0,-999.0,77,-99.99,,,0.00,weatherlink.com 1.10,2013-02-14 23:14:00,
2013-02-14 18:29:00,37.6,32.0,29.86,WSW,254,8.0,-999.0,81,-99.99,,,0.00,weatherlink.com 1.10,2013-02-14 23:29:00,
2013-02-14 18:44:00,36.8,33.0,29.86,SSW,194,3.0,-999.0,85,-99.99,,,0.00,weatherlink.com 1.10,2013-02-14 23:44:00,
2013-02-14 18:59:00,36.4,33.0,29.85,SW,225,5.0,-999.0,87,-99.99,,,0.00,weatherlink.com 1.10,2013-02-14 23:59:00,
2013-02-14 19:14:00,36.3,33.0,29.85,SSW,198,4.0,-999.0,88,-99.99,,,0.00,weatherlink.com 1.10,2013-02-15 00:14:00,
2013-02-14 19:29:00,36.2,33.0,29.85,South,178,6.0,-999.0,89,-99.99,,,0.01,weatherlink.com 1.10,2013-02-15 00:29:00,
2013-02-14 19:44:00,36.1,34.0,29.85,South,188,6.0,-999.0,90,-99.99,,,0.01,weatherlink.com 1.10,2013-02-15 00:44:00,
2013-02-14 20:00:00,36.1,34.0,29.84,SSE,166,7.0,-999.0,91,-99.99,,,0.01,weatherlink.com 1.10,2013-02-15 01:00:00,
2013-02-14 21:00:00,35.6,34.0,29.84,SSW,196,5.0,-999.0,93,-99.99,,,0.03,weatherlink.com 1.10,2013-02-15 02:00:00,
2013-02-14 21:15:00,35.7,34.0,29.84,SW,227,6.0,-999.0,93,-99.99,,,0.03,weatherlink.com 1.10,2013-02-15 02:15:00,
2013-02-14 21:30:00,35.7,34.0,29.84,SW,219,5.0,-999.0,93,-99.99,,,0.03,weatherlink.com 1.10,2013-02-15 02:30:00,
2013-02-14 21:45:00,35.6,34.0,29.84,SW,234,9.0,-999.0,93,-99.99,,,0.03,weatherlink.com 1.10,2013-02-15 02:45:00,
2013-02-14 22:15:00,35.6,34.0,29.83,SW,225,10.0,-999.0,93,-99.99,,,0.05,weatherlink.com 1.10,2013-02-15 03:15:00,
2013-02-14 22:30:00,35.3,33.0,29.83,SW,227,7.0,-999.0,92,-99.99,,,0.05,weatherlink.com 1.10,2013-02-15 03:30:00,
2013-02-14 22:45:00,34.7,33.0,29.82,SSW,197,6.0,-999.0,93,-99.99,,,0.07,weatherlink.com 1.10,2013-02-15 03:45:00,
2013-02-14 23:00:00,34.7,33.0,29.82,SW,219,4.0,-999.0,94,-99.99,,,0.07,weatherlink.com 1.10,2013-02-15 04:00:00,
2013-02-14 23:15:00,34.9,33.0,29.81,South,186,5.0,-999.0,94,-99.99,,,0.08,weatherlink.com 1.10,2013-02-15 04:15:00,
2013-02-14 23:30:00,35.3,34.0,29.81,SSW,198,11.0,-999.0,94,-99.99,,,0.08,weatherlink.com 1.10,2013-02-15 04:30:00,